Location: Unspecified
(0.0000°N, 0.0000°E)
Time: 17:54:46
(UTC+00:00)

STARLINK 1053 - Pass Details

Date: 19 January 2020
Orbit: 548 x 551 km, 53.0° (Epoch: 17 January)

Event Time Altitude Azimuth Distance (km) Brightness Sun altitude
Rises 18:59:52 0° 286° (WNW) 2,704 8.1 -11.5°
Reaches altitude 10° 19:04:21 10° 241° (WSW) 1,815 7.7 -12.6°
Maximum altitude 19:04:47 10° 235° (SW) 1,807 7.6 -12.7°
Drops below altitude 10° 19:05:12 10° 229° (SW) 1,816 7.5 -12.8°
Sets 19:09:43 0° 183° (S) 2,714 7.5 -13.8°
